Αρχική σελίδα
METAR-TAF:

METAR-TAF

Αεροδρόμια :

Kit Carson County Airport

Burlington, Κολοράντο, Ηνωμένες Πολιτείες Αμερικής

γεωγραφικό πλάτος: 39-14-32N, γεωγραφικό μήκος: 102-16-58W, υψόμετρο: 1285 μ

Παρών καιρός

Η αναφορά έγινε 31 λεπτά πριν, στις 15:53 UTC
Άνεμος 8 kt από Α/NA
Θερμοκρασία 2°C
Υγρασία 69%
Πίεση 1027 hPa
Ορατότητα: 16.1 χλμ
Καθαρός ουρανός

METAR: KITR 181553Z AUTO 12008KT 10SM CLR 02/M03 A3034 RMK AO2 SLP285 T00171028

Χρόνος: 10:24 (16:24 UTC)


TAF: λείπει

Μετεωρολογικές αναφορές και προγνώσεις για περισσότερα από 4000 αεροδρόμια (δελτία METAR και TAF).

Οι διαθέσιμοι σταθμοί απεικονίζονται στο χάρτη με κίτρινες και κόκκινες κουκκίδες.

Μετακινήστε το ποντίκι πάνω από τις κουκκίδες για να δείτε το όνομα του σταθμού.

Στη συνέχεια, κάντε κλικ για να δείτε τις μετεωρολογικές αναφορές και τις προγνώσεις καιρού.

Για να αλλάξετε το χάρτη: κάντε κλικ στα πράσινα κουμπιά με τον μαύρο σταυρό για να ζουμάρετε, στο πράσινο κουμπί με την παύλα για να αφαιρέσετε το ζουμ ή στα πράσινα βέλη για να αντιπαραβάλλετε χάρτες.


METAR-TAF: